GW3011 Weather Reports


time (UTC)temp
F
wind
direction
speed
knots
gust
knots
rain 1hr
in
rain 24hr
in
rain mn
in
humidity
%
barometer
mb
20260508131022 57 236 1.7 2.6 0.00 0.00 0.00 55 1012.1
20260508130519 56 207 3.5 3.5 0.00 0.00 0.00 55 1012.1
20260508130015 56 287 2.6 2.6 0.00 0.00 0.00 54 1012.2
20260508125510 56 199 2.6 2.6 0.00 0.00 0.00 56 1012.2
20260508125008 56 256 2.6 2.6 0.00 0.00 0.00 57 1012.1
20260508124506 57 281 2.6 2.6 0.00 0.00 0.00 56 1012.0
20260508124003 56 295 0.9 1.7 0.00 0.00 0.00 56 1011.9
20260508123502 54 301 1.7 1.7 0.00 0.00 0.00 60 1011.9
20260508122957 56 266 3.5 3.5 0.00 0.00 0.00 58 1012.2
20260508122455 54 267 1.7 1.7 0.00 0.00 0.00 60 1012.1
20260508121951 54 241 3.5 3.5 0.00 0.00 0.00 61 1012.3
20260508121450 53 295 3.5 3.5 0.00 0.00 0.00 64 1012.6
20260508120948 53 230 1.7 2.6 0.00 0.00 0.00 67 1012.5
20260508120445 54 262 2.6 2.6 0.00 0.00 0.00 65 1012.6
20260508115943 53 202 4.3 7.0 0.00 0.00 0.00 67 1012.6
20260508115440 53 237 2.6 2.6 0.00 0.00 0.00 67 1012.4
20260508114936 52 297 0.9 0.9 0.00 0.00 0.00 68 1012.2
20260508114434 53 281 0.9 1.7 0.00 0.00 0.00 68 1012.4
20260508113930 53 207 3.5 3.5 0.00 0.00 0.00 67 1012.1
20260508113428 53 280 1.7 2.6 0.00 0.00 0.00 68 1012.0
20260508112925 52 273 2.6 2.6 0.00 0.00 0.00 68 1012.2
20260508112422 52 238 1.7 2.6 0.00 0.00 0.00 68 1012.1
20260508111918 52 286 0.9 1.7 0.00 0.00 0.00 70 1012.0
20260508111415 51 295 1.7 1.7 0.00 0.00 0.00 72 1012.1
20260508110913 50 281 1.7 1.7 0.00 0.00 0.00 73 1011.9
20260508110410 50 303 0.9 0.9 0.00 0.00 0.00 73 1011.9
20260508105910 50 303 0.0 0.0 0.00 0.00 0.00 73 1011.7
20260508105406 50 291 0.0 0.9 0.00 0.00 0.00 74 1011.8
20260508104904 49 279 1.7 1.7 0.00 0.00 0.00 74 1011.7
20260508104401 49 287 0.9 0.9 0.00 0.00 0.00 74 1011.5
20260508103858 49 272 1.7 1.7 0.00 0.00 0.00 74 1011.5
20260508103354 50 283 1.7 1.7 0.00 0.00 0.00 73 1011.4
20260508102852 50 298 0.0 0.0 0.00 0.00 0.00 74 1011.4
20260508102350 50 281 0.9 0.9 0.00 0.00 0.00 74 1011.2
20260508101847 49 287 0.9 0.9 0.00 0.00 0.00 74 1011.4
20260508101344 49 271 0.9 0.9 0.00 0.00 0.00 74 1011.4
20260508100842 49 282 0.9 1.7 0.00 0.00 0.00 73 1011.4
20260508100341 50 254 1.7 1.7 0.00 0.00 0.00 73 1011.3
20260508095835 50 284 1.7 1.7 0.00 0.00 0.00 74 1011.3
20260508095333 49 217 1.7 1.7 0.00 0.00 0.00 74 1011.2
20260508094830 50 288 1.7 1.7 0.00 0.00 0.00 73 1011.0
20260508094327 50 294 1.7 1.7 0.00 0.00 0.00 73 1011.1
20260508093824 50 297 0.9 0.9 0.00 0.00 0.00 72 1011.0
20260508093322 50 297 1.7 2.6 0.00 0.00 0.00 72 1011.0
20260508092819 50 294 0.9 0.9 0.00 0.00 0.00 72 1011.0
20260508092317 50 272 1.7 2.6 0.00 0.00 0.00 71 1010.8
20260508091815 50 303 0.9 0.9 0.00 0.00 0.00 71 1010.8
20260508091311 49 305 0.9 0.9 0.00 0.00 0.00 72 1010.5
20260508090809 49 304 0.9 0.9 0.00 0.00 0.00 72 1010.6
20260508090307 49 303 0.0 0.0 0.00 0.00 0.00 73 1010.8
20260508085803 49 295 3.5 5.2 0.00 0.00 0.00 73 1010.8
20260508085300 49 291 3.5 6.1 0.00 0.00 0.00 71 1010.8
20260508084755 50 281 1.7 1.7 0.00 0.00 0.00 71 1010.7
20260508084253 50 284 1.7 2.6 0.00 0.00 0.00 71 1010.7
20260508083751 50 293 0.9 1.7 0.00 0.00 0.00 71 1010.8
20260508083248 50 288 1.7 2.6 0.00 0.00 0.00 71 1010.8
20260508082748 49 298 0.9 1.7 0.00 0.00 0.00 72 1010.8
20260508082246 49 299 1.7 2.6 0.00 0.00 0.00 71 1010.7
20260508081743 49 254 0.9 1.7 0.00 0.00 0.00 71 1010.9
20260508081239 49 295 1.7 2.6 0.00 0.00 0.00 69 1010.5
20260508080736 50 309 3.5 5.2 0.00 0.00 0.00 69 1010.5
20260508080235 50 285 3.5 5.2 0.00 0.00 0.00 68 1010.2
20260508075731 50 301 1.7 2.6 0.00 0.00 0.00 66 1010.0
20260508075228 50 303 3.5 3.5 0.00 0.00 0.00 65 1010.0
20260508074726 51 312 0.9 0.9 0.00 0.00 0.00 64 1009.9
20260508074223 51 307 1.7 1.7 0.00 0.00 0.00 63 1009.7
20260508073719 51 293 3.5 5.2 0.00 0.00 0.00 62 1009.8
20260508073218 51 11 2.6 3.5 0.00 0.00 0.00 61 1009.7
20260508072713 51 289 1.7 2.6 0.00 0.00 0.00 60 1009.8
20260508072210 51 296 0.9 1.7 0.00 0.00 0.00 59 1009.9
20260508071708 52 299 1.7 1.7 0.00 0.00 0.00 60 1009.9
20260508071206 52 298 1.7 2.6 0.00 0.00 0.00 59 1009.8
20260508070703 52 300 3.5 3.5 0.00 0.00 0.00 58 1009.8
20260508070202 52 296 1.7 1.7 0.00 0.00 0.00 59 1009.9
20260508065658 52 303 3.5 3.5 0.00 0.00 0.00 59 1009.9
20260508065156 52 305 4.3 7.0 0.00 0.00 0.00 60 1010.2
20260508064653 52 307 1.7 1.7 0.00 0.00 0.00 61 1010.0
20260508064152 52 286 5.2 7.0 0.00 0.00 0.00 61 1010.0
20260508063649 53 303 1.7 1.7 0.00 0.00 0.00 60 1009.8
20260508063147 54 261 2.6 2.6 0.00 0.00 0.00 58 1010.3
20260508062644 54 304 0.9 0.9 0.00 0.00 0.00 63 1009.8
20260508062140 54 301 1.7 1.7 0.00 0.00 0.00 74 1009.9
20260508061638 54 303 0.9 0.9 0.00 0.00 0.00 74 1009.8
20260508061135 54 308 1.7 1.7 0.00 0.00 0.00 78 1009.6
20260508060632 54 292 0.9 1.7 0.00 0.00 0.00 79 1009.7
20260508060129 54 289 1.7 1.7 0.00 0.00 0.00 79 1009.6
20260508055625 54 269 0.9 1.7 0.00 0.00 0.00 77 1009.2
20260508055122 54 306 0.9 0.9 0.00 0.00 0.00 76 1008.8
20260508054618 54 302 0.0 0.0 0.00 0.00 0.00 75 1008.4
20260508054116 54 302 0.0 0.0 0.00 0.00 0.00 74 1008.6
20260508053612 55 302 0.0 0.0 0.00 0.00 0.00 73 1008.4
20260508053111 55 302 0.0 0.0 0.00 0.00 0.00 73 1008.6
20260508052607 55 274 0.9 1.7 0.00 0.00 0.00 73 1008.6
20260508052104 55 297 0.0 0.0 0.00 0.00 0.00 73 1008.6
20260508051600 54 273 0.9 0.9 0.00 0.00 0.00 76 1008.6
20260508051056 54 289 0.9 0.9 0.00 0.00 0.00 75 1008.4
20260508050552 55 305 0.0 0.0 0.00 0.00 0.00 74 1008.8
20260508050050 54 264 0.0 0.0 0.00 0.00 0.00 75 1008.8
20260508045546 53 271 0.0 0.0 0.00 0.00 0.00 77 1008.5
20260508045044 54 300 0.0 0.0 0.00 0.00 0.00 76 1008.4
20260508044541 52 306 0.0 0.0 0.00 0.00 0.00 78 1008.4
20260508044037 53 307 0.0 0.0 0.00 0.00 0.00 78 1008.4
20260508043534 53 307 0.0 0.0 0.00 0.00 0.00 78 1008.2
20260508043031 53 300 0.0 0.0 0.00 0.00 0.00 77 1008.4
20260508042527 53 313 0.0 0.0 0.00 0.00 0.00 78 1008.3
20260508042025 53 307 0.0 0.0 0.00 0.00 0.00 77 1008.4
20260508041521 53 307 0.0 0.0 0.00 0.00 0.00 77 1008.3
20260508041018 53 334 0.0 0.0 0.00 0.00 0.00 76 1008.2
20260508040515 53 337 0.0 0.0 0.00 0.00 0.00 76 1008.3
20260508040012 53 324 0.0 0.0 0.00 0.00 0.00 77 1008.2
20260508035509 54 305 0.0 0.0 0.00 0.00 0.00 76 1008.6
20260508035006 54 308 0.0 0.0 0.00 0.00 0.00 76 1008.6
20260508034503 53 305 0.0 0.0 0.00 0.00 0.00 77 1008.6
20260508034000 53 308 0.0 0.0 0.00 0.00 0.00 76 1008.4
20260508033458 54 308 0.0 0.0 0.00 0.00 0.00 76 1008.4
20260508032955 54 303 0.0 0.0 0.00 0.00 0.00 74 1008.6
20260508032452 55 308 0.0 0.0 0.00 0.00 0.00 73 1008.9
20260508031949 54 303 0.0 0.0 0.00 0.00 0.00 74 1008.8
20260508031446 55 302 0.0 0.0 0.00 0.00 0.00 73 1008.7
20260508030942 54 311 0.0 0.0 0.00 0.00 0.00 74 1008.5
20260508030440 55 305 0.0 0.0 0.00 0.00 0.00 73 1008.5
20260508025937 55 308 0.9 1.7 0.00 0.00 0.00 73 1008.5
20260508025433 55 312 0.9 0.9 0.00 0.00 0.00 73 1008.5
20260508024930 55 308 0.0 0.0 0.00 0.00 0.00 72 1008.5
20260508024426 55 302 0.0 0.0 0.00 0.00 0.00 72 1008.6
20260508023923 56 305 0.9 0.9 0.00 0.00 0.00 70 1008.6
20260508023420 56 330 0.0 0.9 0.00 0.00 0.00 68 1008.5
20260508022917 56 297 0.0 0.0 0.00 0.00 0.00 66 1008.4
20260508022412 57 340 1.7 1.7 0.00 0.00 0.00 63 1008.6
20260508021909 57 333 0.9 0.9 0.00 0.00 0.00 60 1008.4
20260508021406 57 347 0.9 0.9 0.00 0.00 0.00 58 1008.4
20260508020902 58 305 0.0 0.0 0.00 0.00 0.00 56 1008.7
20260508020400 58 290 0.9 0.9 0.00 0.00 0.00 53 1008.5
20260508015857 59 323 0.9 1.7 0.00 0.00 0.00 51 1008.4
20260508015355 59 307 0.0 0.0 0.00 0.00 0.00 40 1008.3
20260508014851 59 314 0.0 0.9 0.00 0.00 0.00 39 1008.2
20260508014349 60 301 0.0 0.0 0.00 0.00 0.00 38 1008.0
20260508013844 60 304 1.7 1.7 0.00 0.00 0.00 37 1008.1
20260508013340 60 307 0.0 0.0 0.00 0.00 0.00 37 1008.4
20260508012838 60 298 0.0 0.0 0.00 0.00 0.00 37 1008.2
20260508012335 60 308 1.7 2.6 0.00 0.00 0.00 37 1008.2
20260508011833 60 301 0.9 1.7 0.00 0.00 0.00 37 1008.2
20260508011330 61 290 1.7 1.7 0.00 0.00 0.00 36 1008.2
20260508010827 60 297 0.9 1.7 0.00 0.00 0.00 36 1008.3
20260508010325 61 304 0.0 0.0 0.00 0.00 0.00 37 1007.9
20260508005822 61 300 0.0 0.0 0.00 0.00 0.00 37 1008.1
20260508005318 61 307 0.0 0.0 0.00 0.00 0.00 37 1008.0
20260508004815 61 296 0.9 0.9 0.00 0.00 0.00 36 1007.9
20260508004311 61 301 0.9 0.9 0.00 0.00 0.00 37 1007.6
20260508003807 61 296 1.7 1.7 0.00 0.00 0.00 36 1007.9
20260508003305 61 302 0.9 0.9 0.00 0.00 0.00 36 1007.7
20260508002801 61 297 0.9 0.9 0.00 0.00 0.00 35 1007.7
20260508002258 61 305 0.9 0.9 0.00 0.00 0.00 36 1007.6
20260508001754 61 288 1.7 2.6 0.00 0.00 0.00 36 1007.6
20260508001250 61 331 0.9 1.7 0.00 0.00 0.00 36 1007.7
20260508000746 61 297 0.9 1.7 0.00 0.00 0.00 35 1007.3
20260508000244 61 294 2.6 2.6 0.00 0.00 0.00 35 1007.5
20260507235740 61 301 0.0 0.0 0.00 0.00 0.00 36 1007.5
20260507235238 61 304 0.0 0.0 0.00 0.00 0.00 36 1007.2
20260507234734 62 301 0.9 0.9 0.00 0.00 0.00 35 1007.5
20260507234231 62 304 1.7 1.7 0.00 0.00 0.00 35 1007.3
20260507233727 62 300 0.0 0.0 0.00 0.00 0.00 35 1007.4
20260507233225 62 286 1.7 2.6 0.00 0.00 0.00 35 1007.1
20260507232722 63 306 0.9 0.9 0.00 0.00 0.00 34 1006.9
20260507232219 63 298 2.6 2.6 0.00 0.00 0.00 34 1007.1
20260507231716 63 292 0.9 1.7 0.00 0.00 0.00 34 1006.8
20260507231213 63 279 1.7 2.6 0.00 0.00 0.00 34 1007.1
20260507230710 62 294 1.7 2.6 0.00 0.00 0.00 34 1007.0
20260507230207 62 304 2.6 3.5 0.00 0.00 0.00 34 1007.1
20260507225706 63 263 1.7 1.7 0.00 0.00 0.00 35 1007.1
20260507225203 63 268 3.5 3.5 0.00 0.00 0.00 34 1007.1
20260507224659 63 301 0.9 0.9 0.00 0.00 0.00 34 1006.9
20260507224155 64 301 2.6 3.5 0.00 0.00 0.00 33 1006.9
20260507223652 64 277 0.9 1.7 0.00 0.00 0.00 33 1007.1
20260507223149 64 299 1.7 1.7 0.00 0.00 0.00 32 1006.9
20260507222646 64 303 3.5 5.2 0.00 0.00 0.00 31 1006.9
20260507222142 65 289 2.6 3.5 0.00 0.00 0.00 32 1007.0
20260507221638 65 253 1.7 2.6 0.00 0.00 0.00 32 1006.9
20260507221135 65 284 1.7 1.7 0.00 0.00 0.00 33 1006.9
20260507220632 65 304 3.5 5.2 0.00 0.00 0.00 33 1006.9
20260507220130 65 298 2.6 3.5 0.00 0.00 0.00 33 1007.1
20260507215626 66 253 3.5 3.5 0.00 0.00 0.00 33 1006.7
20260507215123 64 279 2.6 2.6 0.00 0.00 0.00 33 1007.1
20260507214620 64 278 1.7 1.7 0.00 0.00 0.00 34 1007.1
20260507214117 65 297 1.7 1.7 0.00 0.00 0.00 33 1006.9
20260507213613 65 187 2.6 3.5 0.00 0.00 0.00 34 1006.9
20260507213110 66 282 0.9 1.7 0.00 0.00 0.00 33 1006.8
20260507212606 64 283 1.7 1.7 0.00 0.00 0.00 34 1006.6
20260507212103 64 233 2.6 3.5 0.00 0.00 0.00 35 1006.9
20260507211600 66 270 1.7 2.6 0.00 0.00 0.00 34 1006.7
20260507211055 65 297 3.5 3.5 0.00 0.00 0.00 34 1006.4
20260507210553 66 271 1.7 2.6 0.00 0.00 0.00 33 1006.6
20260507210050 65 303 0.9 1.7 0.00 0.00 0.00 33 1006.4
20260507205546 65 269 3.5 3.5 0.00 0.00 0.00 34 1006.7
20260507205043 65 306 2.6 2.6 0.00 0.00 0.00 35 1006.7
20260507204539 67 270 1.7 1.7 0.00 0.09 0.09 33 1006.6
20260507204037 65 306 1.7 2.6 0.00 0.09 0.09 33 1006.7
20260507203535 65 286 0.9 0.9 0.00 0.09 0.09 33 1006.8
20260507203032 66 292 1.7 1.7 0.00 0.09 0.09 32 1006.8
20260507202527 66 242 2.6 3.5 0.00 0.09 0.09 33 1006.9
20260507202024 65 247 1.7 2.6 0.00 0.09 0.09 34 1006.9
20260507201520 66 289 0.9 1.7 0.00 0.09 0.09 33 1006.7
20260507201016 66 197 3.5 3.5 0.00 0.09 0.09 33 1006.7
20260507200511 65 294 3.5 6.1 0.00 0.09 0.09 33 1006.8
20260507200008 64 295 2.6 5.2 0.00 0.09 0.09 34 1006.8
20260507195505 64 250 1.7 2.6 0.00 0.09 0.09 35 1006.8
20260507195003 65 311 0.9 1.7 0.00 0.09 0.09 34 1006.8
20260507194459 65 277 3.5 3.5 0.00 0.09 0.09 33 1007.0
20260507193955 64 194 4.3 5.2 0.00 0.09 0.09 33 1007.0
20260507193452 63 294 2.6 2.6 0.00 0.09 0.09 34 1007.3
20260507192949 64 287 6.1 9.6 0.00 0.09 0.09 32 1007.0
20260507192444 64 294 4.3 6.1 0.00 0.09 0.09 33 1007.0
20260507191942 64 270 0.9 1.7 0.00 0.09 0.09 34 1007.0
20260507191438 63 296 2.6 3.5 0.00 0.09 0.09 35 1007.3
20260507190935 65 291 3.5 3.5 0.00 0.09 0.09 34 1007.2
20260507190432 64 246 2.6 3.5 0.00 0.09 0.09 36 1007.4
20260507185931 64 291 0.0 0.0 0.00 0.09 0.09 33 1007.7
20260507185428 64 299 5.2 7.0 0.00 0.09 0.09 34 1007.6
20260507184924 64 299 3.5 3.5 0.00 0.09 0.09 33 1007.4
20260507184422 65 314 3.5 3.5 0.00 0.09 0.09 33 1007.6
20260507183920 63 308 1.7 1.7 0.00 0.09 0.09 34 1007.7
20260507183416 64 303 0.9 0.9 0.00 0.09 0.09 34 1007.6
20260507182914 64 305 0.9 0.9 0.00 0.09 0.09 34 1007.7
20260507182409 63 300 1.7 2.6 0.00 0.09 0.09 34 1007.7
20260507181906 62 204 1.7 3.5 0.00 0.09 0.09 35 1007.8
20260507181402 62 278 3.5 3.5 0.00 0.09 0.09 34 1007.9
20260507180859 62 303 3.5 3.5 0.00 0.09 0.09 34 1007.8
20260507180355 62 305 5.2 6.1 0.00 0.09 0.09 34 1008.2
20260507175852 62 184 1.7 2.6 0.00 0.09 0.09 34 1008.3
20260507175349 62 278 2.6 2.6 0.00 0.09 0.09 33 1008.4
20260507174846 62 138 3.5 5.2 0.00 0.09 0.09 34 1008.5
20260507174343 63 313 2.6 2.6 0.00 0.09 0.09 33 1008.3
20260507173841 62 214 1.7 3.5 0.00 0.09 0.09 35 1008.2
20260507173338 64 280 2.6 3.5 0.00 0.09 0.09 34 1008.4
20260507172834 63 274 2.6 2.6 0.00 0.09 0.09 36 1008.4
20260507172331 61 301 2.6 2.6 0.00 0.09 0.09 35 1008.5
20260507171826 63 282 3.5 3.5 0.00 0.09 0.09 33 1008.6
20260507171324 61 306 0.9 1.7 0.00 0.09 0.09 35 1008.5
20260507170821 61 289 4.3 5.2 0.00 0.09 0.09 34 1008.7
20260507170317 61 290 4.3 6.1 0.00 0.09 0.09 34 1008.8
20260507165813 62 288 4.3 5.2 0.00 0.09 0.09 36 1008.9
20260507165309 62 313 0.9 1.7 0.00 0.09 0.09 36 1009.0
20260507164805 61 237 4.3 5.2 0.00 0.09 0.09 34 1008.9
20260507164303 61 324 0.9 1.7 0.00 0.09 0.09 35 1009.0
20260507163800 61 252 1.7 2.6 0.00 0.09 0.09 36 1008.9
20260507163258 62 323 1.7 1.7 0.00 0.09 0.09 33 1009.0
20260507162753 62 298 2.6 3.5 0.00 0.09 0.09 33 1009.1
20260507162249 61 279 1.7 1.7 0.00 0.09 0.09 35 1008.9
20260507161747 62 287 5.2 6.1 0.00 0.09 0.09 34 1009.3
20260507161243 61 250 2.6 2.6 0.00 0.09 0.09 36 1009.5
20260507160739 62 311 1.7 2.6 0.00 0.09 0.09 35 1009.7
20260507160236 62 308 1.7 1.7 0.00 0.09 0.09 34 1009.5
20260507155731 61 273 2.6 3.5 0.00 0.09 0.09 37 1009.6
20260507155227 60 308 2.6 3.5 0.00 0.09 0.09 37 1009.5
20260507154724 59 264 2.6 3.5 0.00 0.09 0.09 38 1009.6
20260507154222 59 216 3.5 3.5 0.00 0.09 0.09 37 1009.8
20260507153718 59 292 4.3 6.1 0.00 0.09 0.09 36 1009.8
20260507153215 60 280 1.7 2.6 0.00 0.09 0.09 36 1009.6
20260507152711 59 298 2.6 2.6 0.00 0.09 0.09 36 1009.7
20260507152207 59 353 1.7 3.5 0.00 0.09 0.09 37 1010.1
20260507151704 60 322 1.7 2.6 0.00 0.09 0.09 38 1010.0
20260507151200 59 239 2.6 2.6 0.00 0.09 0.09 40 1010.0
20260507150657 60 288 5.2 6.1 0.00 0.09 0.09 38 1010.1
20260507150154 59 289 3.5 5.2 0.00 0.09 0.09 39 1009.9
20260507145650 59 191 4.3 5.2 0.00 0.09 0.09 41 1009.9
20260507145147 59 287 1.7 1.7 0.00 0.09 0.09 42 1010.0
20260507144643 59 260 2.6 5.2 0.00 0.09 0.09 42 1010.0
20260507144142 59 297 2.6 2.6 0.00 0.09 0.09 46 1010.4
20260507143638 59 273 3.5 5.2 0.00 0.09 0.09 48 1010.4
20260507143135 59 286 2.6 6.1 0.00 0.09 0.09 50 1010.3
20260507142630 58 336 0.0 0.0 0.00 0.09 0.09 48 1010.1
20260507142128 58 300 2.6 2.6 0.00 0.09 0.09 48 1010.1
20260507141624 58 273 1.7 2.6 0.00 0.09 0.09 57 1010.0
20260507141121 58 216 2.6 2.6 0.00 0.09 0.09 57 1010.3
20260507140617 58 196 3.5 5.2 0.00 0.09 0.09 59 1010.3
20260507140115 57 241 3.5 5.2 0.00 0.09 0.09 62 1010.1
20260507135612 55 284 3.5 3.5 0.00 0.09 0.09 63 1010.0
20260507135109 54 312 1.7 1.7 0.00 0.09 0.09 67 1010.2
20260507134605 54 276 2.6 3.5 0.00 0.09 0.09 67 1010.0
20260507134101 55 292 0.9 1.7 0.00 0.09 0.09 67 1010.0
20260507133557 57 298 0.9 1.7 0.00 0.09 0.09 67 1010.4
20260507133055 54 307 0.0 0.9 0.00 0.09 0.09 71 1010.4
20260507132552 55 289 1.7 1.7 0.00 0.09 0.09 71 1010.3
20260507132048 54 301 1.7 2.6 0.00 0.09 0.09 71 1010.3
20260507131545 54 297 2.6 2.6 0.00 0.09 0.09 73 1010.1